Weather History for Lamoni, IA

Change the Weather History Date:

Monday, January 21, 2013

  Actual Average Record
Temperature  
Mean Temperature 8 °F 24 °F  
Max Temperature 13 °F 33 °F 58 °F (1964)
Min Temperature 2 °F 15 °F -18 °F (1970)
Degree Days  
Heating Degree Days 57 41  
Month to date heating degree days 766 861  
Since 1 July heating degree days 2996 3290  
Cooling Degree Days 0 0  
Month to date cooling degree days 0 0  
Year to date cooling degree days 0 0  
Moisture  
Dew Point -4 °F    
Average Humidity 61    
Maximum Humidity 76    
Minimum Humidity 46    
Precipitation  
Precipitation 0.00 in 0.02 in 0.73 in (1973)
Month to date precipitation 0.39 0.43  
Sea Level Pressure  
Sea Level Pressure 30.43 in    
Wind  
Wind Speed 13 mph (NW)    
Max Wind Speed 24 mph    
Max Gust Speed 31 mph    
Visibility 10 miles    
Events      
T = Trace of Precipitation, MM = Missing Value Source: NWS Daily Summary

Daily Weather History Graph

Daily Weather History Graph

Search for Another Location

Airport:

Trip Planner

Search our weather history database for the weather conditions in past years. The results will help you decide how hot, cold, wet, or windy it might be!

Date:

Astronomy

Jan. 21, 2013 Rise Set
Actual Time 7:34 AM CST 5:20 PM CST
Civil Twilight 7:04 AM CST 5:50 PM CST
Nautical Twilight 6:31 AM CST 6:23 PM CST
Astronomical Twilight 5:58 AM CST 6:55 PM CST
Moon 1:00 PM CST (1/21) 3:02 AM CST (1/21)
Length of Visible Light 10h 45m
Length of Day
9h 46m
Waxing Gibbous, 75% of the Moon is Illuminated
Jan 21
Waxing Gibbous
Jan 26
Full
Feb 3
Last Quarter
Feb 10
New
Feb 17
First Quarter

Hourly Weather History & Observations

Time (CST) Temp. Windchill Dew Point Humidity Pressure Visibility Wind Dir Wind Speed Gust Speed Precip Events Conditions
12:53 AM 12.9 °F -1.6 °F 5.0 °F 71% 30.40 in 10.0 mi NW 12.7 mph - N/A   Overcast
1:53 AM 12.9 °F -3.9 °F 3.9 °F 67% 30.41 in 10.0 mi NW 17.3 mph - N/A   Scattered Clouds
2:53 AM 12.9 °F -3.4 °F 5.0 °F 71% 30.40 in 10.0 mi NW 16.1 mph - N/A   Overcast
3:53 AM 12.9 °F -1.6 °F 5.0 °F 71% 30.40 in 10.0 mi NW 12.7 mph - N/A   Overcast
4:53 AM 10.9 °F -7.9 °F -0.9 °F 59% 30.40 in 10.0 mi NNW 20.7 mph 26.5 mph N/A   Mostly Cloudy
5:53 AM 7.0 °F -12.1 °F -5.1 °F 58% 30.42 in 10.0 mi NW 18.4 mph 24.2 mph N/A   Overcast
6:53 AM 5.0 °F -15.2 °F -7.1 °F 58% 30.44 in 10.0 mi NNW 19.6 mph 28.8 mph N/A   Mostly Cloudy
7:53 AM 1.9 °F -19.2 °F -9.0 °F 60% 30.45 in 10.0 mi NW 19.6 mph 28.8 mph N/A   Clear
8:53 AM 3.9 °F -16.1 °F -8.0 °F 58% 30.48 in 10.0 mi NW 18.4 mph 25.3 mph N/A   Clear
9:53 AM 6.1 °F -13.3 °F -8.0 °F 53% 30.48 in 10.0 mi NNW 18.4 mph 23.0 mph N/A   Clear
10:53 AM 7.0 °F -10.4 °F -8.0 °F 51% 30.49 in 10.0 mi NNW 15.0 mph - N/A   Clear
11:53 AM 8.1 °F -7.0 °F -7.1 °F 50% 30.48 in 10.0 mi NW 11.5 mph 17.3 mph N/A   Scattered Clouds
12:53 PM 9.0 °F -6.6 °F -8.0 °F 46% 30.45 in 10.0 mi NW 12.7 mph - N/A   Partly Cloudy
1:53 PM 10.0 °F -5.2 °F -7.1 °F 46% 30.43 in 10.0 mi WNW 12.7 mph - N/A   Overcast
2:53 PM 10.0 °F -3.7 °F -7.1 °F 46% 30.43 in 10.0 mi WNW 10.4 mph - N/A   Mostly Cloudy
3:53 PM 10.9 °F -2.6 °F -7.1 °F 44% 30.42 in 10.0 mi WNW 10.4 mph - N/A   Partly Cloudy
4:53 PM 10.0 °F -3.7 °F -6.0 °F 48% 30.42 in 10.0 mi WNW 10.4 mph - N/A   Scattered Clouds
5:53 PM 10.0 °F -2.9 °F -5.1 °F 51% 30.42 in 10.0 mi WNW 9.2 mph - N/A   Overcast
6:53 PM 10.0 °F -4.5 °F -5.1 °F 51% 30.42 in 10.0 mi NW 11.5 mph - N/A   Partly Cloudy
7:53 PM 10.0 °F -3.7 °F -4.0 °F 53% 30.43 in 10.0 mi WNW 10.4 mph - N/A   Overcast
8:53 PM 10.0 °F 0.4 °F -2.9 °F 56% 30.43 in 10.0 mi NW 5.8 mph - N/A   Overcast
9:53 PM 10.0 °F -2.9 °F -4.0 °F 53% 30.43 in 10.0 mi NNW 9.2 mph - N/A   Overcast
10:53 PM 9.0 °F -2.2 °F -2.9 °F 59% 30.43 in 10.0 mi NNW 6.9 mph - N/A   Overcast
11:53 PM 9.0 °F 2.4 °F -2.9 °F 59% 30.43 in 10.0 mi NW 3.5 mph - N/A   Partly Cloudy